QPF
0.03 0.03 0.02 0.02 0.01 0.01 0.01 0.02 0.03 0.04 0.05 0.04 0.03 0.02 0.01 0.01 0.02 0.03 0.02 0.01 0.00 0.00 0.00 0.00 0.00 0.00 0.00 0.00 0.00 0.00 0.00 0.00 0.00 0.00 0.00 0.01 0.01 0.01
0.04 0.04 0.03 0.03 0.03 0.02 0.02 0.02 0.02 0.04 0.05 0.05 0.04 0.03 0.02 0.02 0.03 0.03 0.02 0.02 0.01 0.00 0.00 0.00 0.00 0.00 0.00 0.00 0.00 0.00 0.00 0.00 0.00 0.00 0.00 0.00 0.00 0.00
0.06 0.05 0.05 0.05 0.05 0.05 0.05 0.04 0.04 0.06 0.06 0.05 0.06 0.05 0.05 0.05 0.06 0.05 0.05 0.05 0.05 0.05 0.02 0.01 0.00 0.00 0.00 0.00 0.00 0.00 0.00 0.00 0.00 0.00 0.00 0.00 0.00 0.00
0.06 0.07 0.06 0.06 0.07 0.06 0.06 0.05 0.05 0.07 0.08 0.09 0.10 0.11 0.11 0.09 0.09 0.06 0.04 0.04 0.05 0.08 0.05 0.02 0.01 0.00 0.00 0.00 0.00 0.00 0.00 0.00 0.00 0.00 0.00 0.00 0.00 0.00
0.08 0.07 0.07 0.08 0.08 0.08 0.07 0.06 0.07 0.06 0.08 0.11 0.11 0.10 0.09 0.07 0.07 0.06 0.04 0.06 0.04 0.05 0.04 0.03 0.02 0.01 0.01 0.01 0.00 0.01 0.00 0.00 0.00 0.00 0.00 0.00 0.00 0.00
0.13 0.12 0.11 0.11 0.10 0.10 0.09 0.09 0.08 0.09 0.10 0.12 0.11 0.11 0.09 0.08 0.08 0.07 0.07 0.08 0.05 0.04 0.04 0.04 0.04 0.04 0.03 0.02 0.01 0.01 0.01 0.01 0.00 0.00 0.00 0.00 0.00 0.00
0.15 0.14 0.11 0.09 0.08 0.07 0.05 0.07 0.08 0.10 0.11 0.12 0.11 0.08 0.07 0.07 0.07 0.06 0.06 0.07 0.05 0.03 0.04 0.05 0.06 0.06 0.07 0.05 0.03 0.02 0.02 0.01 0.01 0.01 0.01 0.00 0.00 0.00
0.11 0.10 0.07 0.05 0.04 0.03 0.03 0.03 0.05 0.07 0.08 0.09 0.08 0.07 0.05 0.04 0.04 0.05 0.05 0.06 0.06 0.04 0.03 0.03 0.04 0.05 0.05 0.04 0.03 0.02 0.02 0.02 0.01 0.01 0.01 0.01 0.01 0.01
0.12 0.10 0.07 0.05 0.05 0.04 0.03 0.03 0.03 0.04 0.05 0.06 0.07 0.06 0.05 0.05 0.05 0.05 0.05 0.05 0.04 0.04 0.03 0.04 0.04 0.05 0.04 0.03 0.02 0.02 0.01 0.01 0.01 0.01 0.01 0.01 0.01 0.01
0.11 0.10 0.09 0.09 0.08 0.07 0.06 0.05 0.04 0.03 0.03 0.04 0.03 0.03 0.03 0.03 0.02 0.02 0.02 0.02 0.02 0.02 0.02 0.02 0.02 0.02 0.02 0.02 0.01 0.01 0.01 0.01 0.01 0.01 0.01 0.01 0.01 0.01
0.11 0.10 0.11 0.11 0.11 0.09 0.07 0.06 0.05 0.05 0.05 0.05 0.04 0.04 0.03 0.03 0.02 0.02 0.02 0.02 0.02 0.02 0.01 0.01 0.01 0.01 0.01 0.01 0.01 0.01 0.01 0.01 0.01 0.01 0.01 0.01 0.01 0.01
0.11 0.11 0.12 0.11 0.11 0.09 0.07 0.07 0.06 0.06 0.05 0.04 0.04 0.03 0.02 0.01 0.01 0.01 0.01 0.01 0.01 0.01 0.01 0.01 0.01 0.01 0.01 0.01 0.01 0.01 0.01 0.01 0.00 0.00 0.00 0.00 0.00 0.00
0.09 0.11 0.11 0.11 0.08 0.07 0.05 0.05 0.05 0.04 0.03 0.02 0.02 0.01 0.00 0.00 0.00 0.00 0.00 0.00 0.00 0.01 0.01 0.01 0.02 0.02 0.02 0.01 0.01 0.01 0.01 0.01 0.01 0.01 0.01 0.00 0.00 0.00
0.04 0.04 0.04 0.04 0.03 0.03 0.02 0.02 0.01 0.01 0.01 0.01 0.00 0.00 0.00 0.00 0.00 0.00 0.00 0.00 0.00 0.00 0.01 0.01 0.01 0.01 0.01 0.01 0.01 0.01 0.01 0.01 0.01 0.01 0.01 0.01 0.01 0.01
0.02 0.02 0.02 0.02 0.01 0.01 0.01 0.01 0.01 0.01 0.01 0.01 0.01 0.00 0.00 0.00 0.00 0.00 0.00 0.00 0.00 0.00 0.00 0.00 0.01 0.01 0.01 0.01 0.01 0.01 0.01 0.01 0.01 0.01 0.01 0.01 0.02 0.02
0.02 0.03 0.03 0.03 0.02 0.02 0.03 0.02 0.02 0.02 0.02 0.01 0.01 0.01 0.01 0.00 0.00 0.00 0.00 0.00 0.00 0.00 0.00 0.00 0.01 0.01 0.01 0.01 0.01 0.01 0.01 0.02 0.01 0.02 0.02 0.02 0.02 0.02
0.02 0.03 0.03 0.02 0.02 0.02 0.02 0.02 0.01 0.01 0.00 0.00 0.00 0.00 0.00 0.00 0.00 0.00 0.00 0.00 0.00 0.00 0.00 0.00 0.00 0.00 0.01 0.01 0.01 0.01 0.01 0.01 0.02 0.02 0.01 0.01 0.01 0.02
0.02 0.02 0.02 0.02 0.02 0.01 0.01 0.01 0.00 0.00 0.00 0.00 0.00 0.00 0.00 0.00 0.00 0.00 0.00 0.00 0.00 0.00 0.00 0.00 0.00 0.00 0.00 0.01 0.01 0.01 0.01 0.01 0.01 0.01 0.02 0.02 0.02 0.01
0.01 0.01 0.01 0.01 0.01 0.00 0.00 0.00 0.00 0.00 0.00 0.00 0.00 0.00 0.00 0.00 0.00 0.00 0.00 0.00 0.00 0.00 0.00 0.00 0.01 0.01 0.01 0.01 0.01 0.01 0.01 0.01 0.01 0.01 0.01 0.02 0.02 0.01
0.01 0.00 0.00 0.00 0.00 0.00 0.00 0.00 0.00 0.00 0.00 0.00 0.00 0.00 0.00 0.00 0.00 0.00 0.00 0.00 0.00 0.00 0.00 0.00 0.01 0.01 0.01 0.01 0.01 0.01 0.01 0.01 0.01 0.01 0.01 0.01 0.02 0.01
0.01 0.00 0.00 0.00 0.00 0.00 0.00 0.00 0.00 0.00 0.00 0.00 0.00 0.00 0.00 0.00 0.00 0.00 0.00 0.00 0.00 0.00 0.00 0.00 0.00 0.00 0.01 0.02 0.02 0.02 0.01 0.01 0.01 0.01 0.01 0.01 0.02 0.02
0.01 0.00 0.00 0.00 0.00 0.00 0.00 0.00 0.00 0.00 0.00 0.00 0.00 0.00 0.00 0.00 0.00 0.00 0.00 0.00 0.00 0.00 0.00 0.00 0.00 0.01 0.01 0.02 0.02 0.01 0.01 0.01 0.01 0.00 0.01 0.01 0.01 0.01
0.00 0.00 0.00 0.00 0.00 0.00 0.00 0.00 0.00 0.00 0.00 0.00 0.00 0.00 0.00 0.00 0.00 0.00 0.00 0.00 0.00 0.00 0.00 0.00 0.00 0.01 0.01 0.02 0.01 0.01 0.01 0.01 0.01 0.01 0.01 0.01 0.01 0.01
MSLP
1016.89 1017.30 1017.70 1018.06 1018.38 1018.61 1018.77 1018.84 1018.84 1018.78 1018.68 1018.56 1018.45 1018.35 1018.28 1018.27 1018.32 1018.43 1018.61 1018.85 1019.13 1019.45 1019.78 1020.08 1020.34 1020.55 1020.69 1020.77 1020.79 1020.78 1020.76 1020.73 1020.71 1020.71 1020.71 1020.70 1020.67 1020.61
1016.61 1016.99 1017.35 1017.68 1017.96 1018.18 1018.33 1018.43 1018.49 1018.50 1018.49 1018.46 1018.43 1018.41 1018.39 1018.41 1018.45 1018.54 1018.67 1018.86 1019.09 1019.36 1019.65 1019.95 1020.22 1020.46 1020.65 1020.78 1020.86 1020.91 1020.92 1020.93 1020.92 1020.92 1020.90 1020.87 1020.81 1020.72
1016.43 1016.79 1017.13 1017.42 1017.66 1017.86 1018.02 1018.14 1018.25 1018.34 1018.43 1018.51 1018.59 1018.66 1018.71 1018.76 1018.81 1018.87 1018.95 1019.07 1019.23 1019.43 1019.67 1019.93 1020.19 1020.44 1020.67 1020.85 1020.99 1021.09 1021.15 1021.19 1021.20 1021.20 1021.17 1021.12 1021.03 1020.91
1016.39 1016.76 1017.09 1017.36 1017.58 1017.76 1017.92 1018.07 1018.23 1018.41 1018.59 1018.78 1018.97 1019.13 1019.26 1019.35 1019.40 1019.44 1019.46 1019.50 1019.57 1019.68 1019.84 1020.04 1020.27 1020.51 1020.75 1020.96 1021.14 1021.29 1021.39 1021.45 1021.48 1021.47 1021.43 1021.35 1021.22 1021.06
1016.53 1016.94 1017.27 1017.54 1017.76 1017.94 1018.11 1018.30 1018.50 1018.75 1019.02 1019.31 1019.58 1019.83 1020.02 1020.14 1020.20 1020.20 1020.17 1020.12 1020.09 1020.11 1020.17 1020.29 1020.46 1020.66 1020.88 1021.10 1021.29 1021.46 1021.58 1021.65 1021.67 1021.65 1021.58 1021.47 1021.30 1021.10
1016.85 1017.32 1017.70 1018.00 1018.23 1018.43 1018.62 1018.82 1019.07 1019.37 1019.70 1020.05 1020.40 1020.70 1020.94 1021.08 1021.14 1021.11 1021.02 1020.89 1020.77 1020.68 1020.64 1020.67 1020.76 1020.90 1021.07 1021.25 1021.43 1021.57 1021.68 1021.73 1021.74 1021.69 1021.58 1021.42 1021.21 1020.95
1017.34 1017.88 1018.33 1018.68 1018.95 1019.18 1019.39 1019.62 1019.88 1020.20 1020.56 1020.95 1021.33 1021.66 1021.92 1022.07 1022.12 1022.06 1021.92 1021.73 1021.53 1021.35 1021.22 1021.15 1021.14 1021.20 1021.30 1021.41 1021.53 1021.63 1021.69 1021.70 1021.65 1021.55 1021.39 1021.18 1020.92 1020.61
1017.98 1018.61 1019.13 1019.54 1019.86 1020.12 1020.35 1020.58 1020.85 1021.16 1021.51 1021.89 1022.27 1022.60 1022.85 1023.00 1023.03 1022.96 1022.79 1022.56 1022.30 1022.05 1021.83 1021.68 1021.58 1021.55 1021.55 1021.58 1021.61 1021.63 1021.61 1021.55 1021.44 1021.27 1021.05 1020.78 1020.46 1020.11
1018.75 1019.45 1020.04 1020.51 1020.87 1021.15 1021.38 1021.60 1021.84 1022.12 1022.44 1022.77 1023.11 1023.40 1023.63 1023.76 1023.78 1023.70 1023.52 1023.27 1022.99 1022.70 1022.44 1022.21 1022.04 1021.92 1021.83 1021.76 1021.69 1021.60 1021.49 1021.34 1021.15 1020.91 1020.63 1020.30 1019.94 1019.54
1019.62 1020.37 1021.00 1021.51 1021.89 1022.17 1022.39 1022.58 1022.77 1022.99 1023.23 1023.50 1023.76 1024.00 1024.19 1024.29 1024.30 1024.22 1024.05 1023.81 1023.53 1023.24 1022.96 1022.71 1022.48 1022.28 1022.11 1021.94 1021.77 1021.58 1021.37 1021.13 1020.85 1020.54 1020.20 1019.83 1019.43 1019.01
1020.56 1021.32 1021.96 1022.46 1022.84 1023.10 1023.29 1023.42 1023.55 1023.68 1023.84 1024.02 1024.20 1024.37 1024.50 1024.57 1024.57 1024.49 1024.35 1024.15 1023.90 1023.64 1023.37 1023.11 1022.86 1022.61 1022.37 1022.13 1021.87 1021.59 1021.29 1020.97 1020.62 1020.26 1019.87 1019.47 1019.05 1018.62
1021.55 1022.27 1022.86 1023.33 1023.67 1023.88 1024.01 1024.08 1024.13 1024.18 1024.25 1024.33 1024.42 1024.52 1024.59 1024.63 1024.62 1024.56 1024.44 1024.29 1024.09 1023.88 1023.65 1023.40 1023.15 1022.89 1022.61 1022.31 1021.98 1021.64 1021.27 1020.88 1020.49 1020.09 1019.69 1019.28 1018.87 1018.45
1022.53 1023.16 1023.67 1024.06 1024.32 1024.47 1024.54 1024.54 1024.52 1024.49 1024.47 1024.47 1024.48 1024.51 1024.53 1024.53 1024.51 1024.46 1024.38 1024.27 1024.13 1023.97 1023.78 1023.58 1023.35 1023.09 1022.79 1022.46 1022.10 1021.71 1021.30 1020.88 1020.46 1020.05 1019.65 1019.26 1018.88 1018.49
1023.44 1023.93 1024.32 1024.61 1024.78 1024.85 1024.85 1024.80 1024.72 1024.63 1024.55 1024.49 1024.45 1024.42 1024.39 1024.37 1024.33 1024.28 1024.22 1024.15 1024.05 1023.94 1023.81 1023.64 1023.44 1023.20 1022.91 1022.57 1022.19 1021.78 1021.36 1020.93 1020.51 1020.11 1019.73 1019.38 1019.04 1018.70
1024.19 1024.53 1024.78 1024.95 1025.02 1025.02 1024.97 1024.88 1024.77 1024.65 1024.55 1024.46 1024.38 1024.32 1024.26 1024.21 1024.15 1024.10 1024.04 1023.99 1023.92 1023.84 1023.74 1023.61 1023.44 1023.22 1022.95 1022.61 1022.24 1021.83 1021.40 1020.98 1020.57 1020.20 1019.86 1019.56 1019.27 1018.99
1024.72 1024.90 1025.01 1025.06 1025.05 1024.99 1024.91 1024.81 1024.70 1024.60 1024.51 1024.43 1024.35 1024.27 1024.19 1024.12 1024.04 1023.97 1023.90 1023.84 1023.78 1023.72 1023.64 1023.53 1023.37 1023.17 1022.91 1022.59 1022.22 1021.81 1021.40 1020.99 1020.60 1020.26 1019.96 1019.70 1019.47 1019.25
1024.98 1025.01 1025.00 1024.95 1024.88 1024.80 1024.72 1024.65 1024.58 1024.53 1024.48 1024.43 1024.37 1024.31 1024.22 1024.13 1024.03 1023.93 1023.84 1023.75 1023.68 1023.61 1023.52 1023.41 1023.27 1023.07 1022.82 1022.50 1022.14 1021.74 1021.33 1020.93 1020.56 1020.23 1019.96 1019.74 1019.56 1019.39
1024.97 1024.89 1024.79 1024.68 1024.59 1024.51 1024.47 1024.46 1024.47 1024.49 1024.51 1024.51 1024.50 1024.45 1024.37 1024.26 1024.13 1024.00 1023.87 1023.75 1023.64 1023.54 1023.44 1023.32 1023.16 1022.96 1022.70 1022.38 1022.01 1021.61 1021.20 1020.79 1020.42 1020.10 1019.84 1019.64 1019.48 1019.35
1024.76 1024.61 1024.46 1024.34 1024.25 1024.22 1024.24 1024.31 1024.41 1024.52 1024.62 1024.69 1024.71 1024.69 1024.61 1024.48 1024.33 1024.16 1023.99 1023.82 1023.68 1023.54 1023.41 1023.26 1023.09 1022.87 1022.60 1022.27 1021.89 1021.47 1021.03 1020.61 1020.22 1019.88 1019.61 1019.40 1019.25 1019.13
1024.44 1024.27 1024.12 1024.02 1023.98 1024.02 1024.12 1024.28 1024.47 1024.66 1024.83 1024.96 1025.02 1025.00 1024.92 1024.78 1024.59 1024.38 1024.16 1023.96 1023.77 1023.60 1023.44 1023.27 1023.07 1022.84 1022.55 1022.20 1021.79 1021.35 1020.89 1020.43 1020.01 1019.63 1019.33 1019.09 1018.92 1018.79
1024.12 1023.98 1023.87 1023.84 1023.87 1023.99 1024.18 1024.42 1024.69 1024.95 1025.17 1025.32 1025.40 1025.38 1025.28 1025.10 1024.88 1024.63 1024.37 1024.13 1023.91 1023.71 1023.52 1023.33 1023.12 1022.87 1022.56 1022.19 1021.76 1021.29 1020.79 1020.30 1019.83 1019.42 1019.06 1018.78 1018.57 1018.41
1023.91 1023.83 1023.80 1023.85 1023.98 1024.19 1024.46 1024.76 1025.08 1025.37 1025.61 1025.76 1025.82 1025.78 1025.64 1025.43 1025.16 1024.87 1024.58 1024.30 1024.05 1023.83 1023.63 1023.43 1023.21 1022.95 1022.63 1022.25 1021.80 1021.31 1020.79 1020.26 1019.75 1019.28 1018.88 1018.55 1018.28 1018.07
1023.84 1023.86 1023.94 1024.09 1024.31 1024.59 1024.93 1025.28 1025.62 1025.91 1026.13 1026.25 1026.26 1026.17 1025.98 1025.71 1025.40 1025.07 1024.75 1024.45 1024.19 1023.96 1023.75 1023.54 1023.32 1023.06 1022.74 1022.36 1021.91 1021.40 1020.86 1020.31 1019.77 1019.27 1018.82 1018.44 1018.12 1017.86
Thickness
5734 5734 5733 5734 5735 5735 5734 5730 5721 5713 5714 5722 5725 5727 5726 5724 5721 5718 5716 5713 5710 5708 5706 5704 5702 5700 5698 5696 5695 5693 5692 5690 5689 5688 5687 5686 5685 5685
5731 5730 5729 5730 5730 5730 5729 5727 5723 5717 5711 5716 5718 5720 5719 5718 5714 5712 5711 5709 5706 5703 5701 5699 5697 5695 5693 5691 5689 5687 5686 5684 5683 5681 5680 5679 5679 5678
5728 5727 5725 5725 5723 5723 5722 5720 5718 5715 5708 5709 5712 5713 5711 5709 5707 5705 5704 5703 5699 5697 5695 5692 5690 5688 5686 5684 5682 5680 5678 5677 5675 5673 5672 5671 5670 5670
5723 5721 5719 5719 5716 5715 5713 5712 5711 5710 5705 5700 5702 5702 5701 5700 5698 5697 5696 5695 5693 5691 5688 5686 5683 5680 5677 5675 5673 5671 5669 5667 5666 5664 5663 5662 5661 5660
5717 5714 5712 5711 5708 5707 5706 5704 5703 5703 5701 5696 5693 5693 5692 5690 5689 5687 5686 5685 5683 5681 5679 5676 5673 5670 5668 5666 5663 5661 5658 5656 5655 5653 5652 5651 5650 5649
5709 5706 5704 5702 5700 5699 5697 5694 5694 5693 5691 5688 5685 5682 5679 5678 5676 5673 5672 5671 5670 5669 5667 5665 5663 5661 5658 5655 5652 5650 5647 5644 5643 5641 5640 5639 5638 5637
5700 5697 5694 5692 5690 5688 5686 5683 5683 5681 5679 5676 5672 5668 5665 5663 5661 5660 5659 5658 5656 5656 5654 5653 5651 5649 5646 5643 5640 5637 5635 5632 5630 5628 5627 5626 5625 5624
5691 5687 5684 5681 5678 5676 5673 5671 5670 5668 5665 5663 5659 5654 5650 5648 5648 5648 5645 5643 5640 5642 5640 5639 5639 5636 5634 5630 5627 5624 5621 5619 5617 5615 5614 5612 5611 5611
5681 5678 5675 5671 5668 5665 5662 5659 5656 5654 5652 5649 5643 5639 5636 5634 5633 5633 5631 5629 5627 5628 5628 5625 5624 5621 5619 5616 5613 5610 5607 5605 5603 5601 5599 5598 5597 5596
5669 5666 5662 5658 5656 5654 5651 5646 5642 5640 5638 5635 5631 5627 5625 5622 5620 5620 5618 5617 5617 5615 5613 5609 5608 5605 5604 5600 5597 5595 5592 5590 5588 5585 5583 5582 5581 5580
5656 5652 5650 5646 5644 5643 5640 5634 5630 5626 5623 5621 5618 5615 5613 5610 5608 5606 5604 5602 5600 5598 5595 5591 5589 5588 5587 5585 5582 5578 5576 5574 5571 5569 5567 5565 5564 5563
5643 5639 5636 5634 5631 5630 5627 5623 5617 5614 5612 5610 5607 5604 5601 5598 5594 5590 5587 5584 5582 5580 5576 5573 5570 5569 5568 5567 5564 5561 5559 5557 5554 5552 5549 5547 5546 5544
5633 5627 5622 5620 5618 5616 5613 5609 5604 5602 5601 5599 5596 5592 5589 5585 5580 5576 5573 5569 5565 5561 5559 5556 5552 5549 5546 5545 5545 5544 5541 5539 5537 5534 5531 5529 5527 5525
5622 5615 5610 5608 5605 5602 5600 5596 5593 5591 5589 5587 5583 5579 5575 5571 5567 5563 5560 5556 5552 5548 5545 5540 5536 5532 5529 5526 5526 5525 5523 5521 5519 5517 5513 5511 5508 5507
5609 5603 5599 5596 5593 5590 5586 5584 5581 5579 5576 5573 5569 5565 5561 5558 5554 5550 5546 5543 5539 5536 5532 5527 5523 5518 5513 5510 5509 5508 5507 5505 5503 5500 5497 5494 5491 5490
5596 5591 5588 5585 5582 5578 5575 5573 5570 5566 5562 5559 5555 5552 5549 5545 5541 5537 5532 5528 5525 5521 5518 5513 5509 5505 5501 5498 5496 5494 5492 5489 5487 5484 5481 5479 5477 5476
5585 5582 5579 5576 5573 5570 5566 5562 5558 5553 5549 5546 5542 5538 5534 5530 5526 5522 5518 5514 5509 5505 5502 5499 5495 5492 5489 5486 5484 5481 5478 5475 5472 5470 5468 5467 5466 5465
5576 5574 5571 5567 5563 5559 5555 5550 5544 5539 5535 5532 5528 5524 5520 5516 5512 5508 5504 5499 5494 5490 5487 5485 5482 5480 5476 5474 5471 5468 5465 5462 5460 5459 5457 5455 5455 5455
5565 5564 5559 5554 5550 5546 5542 5537 5532 5527 5522 5519 5515 5510 5506 5503 5499 5495 5491 5486 5481 5478 5475 5473 5471 5466 5463 5460 5459 5456 5454 5452 5451 5450 5448 5446 5446 5446
5555 5551 5546 5542 5537 5532 5528 5523 5519 5515 5510 5506 5502 5498 5495 5491 5487 5483 5480 5475 5471 5468 5466 5463 5460 5456 5451 5449 5449 5449 5448 5446 5444 5442 5442 5440 5439 5439
5544 5539 5534 5529 5524 5519 5514 5510 5507 5502 5497 5494 5491 5486 5483 5480 5476 5472 5469 5465 5461 5459 5456 5454 5451 5448 5446 5444 5442 5442 5441 5439 5438 5436 5435 5434 5433 5433
5532 5527 5522 5517 5512 5507 5502 5499 5496 5492 5487 5483 5479 5476 5473 5469 5466 5463 5460 5457 5453 5450 5448 5446 5444 5442 5439 5436 5435 5435 5436 5434 5433 5431 5430 5428 5426 5425
5521 5517 5512 5507 5502 5497 5493 5489 5486 5481 5476 5472 5468 5465 5462 5460 5456 5454 5452 5449 5445 5443 5441 5439 5437 5435 5433 5431 5430 5430 5429 5428 5428 5427 5425 5424 5423 5422